| time (UTC) | temp C | wind direction | speed KPH | gust KPH | rain 1hr cm | rain 24hr cm | rain mn cm | humidity % | barometer mb |
| 20260904222003 | 21 | 236 | 19.3 | 27.4 | 0.00 | 0.00 | 0.00 | 50 | 1015.9 |
| 20260904221504 | 21 | 235 | 19.3 | 37.0 | 0.00 | 0.00 | 0.00 | 51 | 1015.9 |
| 20260904221003 | 21 | 229 | 20.9 | 25.7 | 0.00 | 0.00 | 0.00 | 51 | 1015.9 |
| 20260904220503 | 21 | 234 | 19.3 | 27.4 | 0.00 | 0.00 | 0.00 | 51 | 1016.0 |
| 20260904215503 | 21 | 228 | 19.3 | 22.5 | 0.00 | 0.00 | 0.00 | 52 | 1016.1 |
| 20260904214503 | 21 | 237 | 19.3 | 27.4 | 0.00 | 0.00 | 0.00 | 52 | 1016.0 |
| 20260904214004 | 21 | 239 | 19.3 | 30.6 | 0.00 | 0.00 | 0.00 | 51 | 1016.0 |
| 20260904213003 | 21 | 239 | 19.3 | 32.2 | 0.00 | 0.00 | 0.00 | 52 | 1016.0 |
| 20260904212504 | 21 | 235 | 17.7 | 27.4 | 0.00 | 0.00 | 0.00 | 51 | 1016.0 |
| 20260904212003 | 21 | 234 | 17.7 | 30.6 | 0.00 | 0.00 | 0.00 | 51 | 1016.1 |
| 20260904211504 | 21 | 234 | 19.3 | 30.6 | 0.00 | 0.00 | 0.00 | 52 | 1016.1 |
| 20260904211003 | 21 | 234 | 17.7 | 27.4 | 0.00 | 0.00 | 0.00 | 52 | 1016.1 |
| 20260904210502 | 21 | 232 | 17.7 | 32.2 | 0.00 | 0.00 | 0.00 | 52 | 1016.2 |
| 20260904210003 | 21 | 232 | 17.7 | 30.6 | 0.00 | 0.00 | 0.00 | 53 | 1016.3 |
| 20260904205503 | 21 | 230 | 19.3 | 30.6 | 0.00 | 0.00 | 0.00 | 52 | 1016.3 |
| 20260904205002 | 21 | 232 | 17.7 | 29.0 | 0.00 | 0.00 | 0.00 | 52 | 1016.2 |
| 20260904204502 | 21 | 235 | 17.7 | 27.4 | 0.00 | 0.00 | 0.00 | 52 | 1016.4 |
| 20260904204002 | 21 | 230 | 19.3 | 22.5 | 0.00 | 0.00 | 0.00 | 53 | 1016.3 |
| 20260904203502 | 21 | 238 | 20.9 | 30.6 | 0.00 | 0.00 | 0.00 | 53 | 1016.4 |
| 20260904203002 | 20 | 243 | 19.3 | 30.6 | 0.00 | 0.00 | 0.00 | 53 | 1016.2 |
| 20260904202503 | 21 | 234 | 19.3 | 30.6 | 0.00 | 0.00 | 0.00 | 53 | 1016.2 |
| 20260904202002 | 20 | 234 | 19.3 | 27.4 | 0.00 | 0.00 | 0.00 | 53 | 1016.2 |
| 20260904201502 | 20 | 238 | 17.7 | 32.2 | 0.00 | 0.00 | 0.00 | 53 | 1016.3 |
| 20260904201003 | 20 | 233 | 16.1 | 24.1 | 0.00 | 0.00 | 0.00 | 53 | 1016.3 |
| 20260904200503 | 20 | 235 | 16.1 | 22.5 | 0.00 | 0.00 | 0.00 | 54 | 1016.4 |
| 20260904200002 | 20 | 239 | 17.7 | 25.7 | 0.00 | 0.00 | 0.00 | 53 | 1016.3 |
| 20260904195502 | 20 | 240 | 19.3 | 24.1 | 0.00 | 0.00 | 0.00 | 54 | 1016.3 |
| 20260904195003 | 20 | 238 | 20.9 | 27.4 | 0.00 | 0.00 | 0.00 | 54 | 1016.4 |
| 20260904194502 | 20 | 236 | 19.3 | 35.4 | 0.00 | 0.00 | 0.00 | 54 | 1016.3 |
| 20260904194002 | 20 | 236 | 19.3 | 29.0 | 0.00 | 0.00 | 0.00 | 54 | 1016.3 |
| 20260904193502 | 20 | 233 | 16.1 | 30.6 | 0.00 | 0.00 | 0.00 | 53 | 1016.4 |
| 20260904193003 | 20 | 236 | 14.5 | 25.7 | 0.00 | 0.00 | 0.00 | 52 | 1016.4 |
| 20260904192502 | 20 | 239 | 14.5 | 25.7 | 0.00 | 0.00 | 0.00 | 53 | 1016.6 |
| 20260904191503 | 19 | 238 | 17.7 | 29.0 | 0.00 | 0.00 | 0.00 | 54 | 1016.6 |
| 20260904191002 | 19 | 241 | 17.7 | 25.7 | 0.00 | 0.00 | 0.00 | 54 | 1016.7 |
| 20260904190502 | 19 | 235 | 16.1 | 25.7 | 0.00 | 0.00 | 0.00 | 55 | 1016.7 |
| 20260904190003 | 18 | 236 | 14.5 | 27.4 | 0.00 | 0.00 | 0.00 | 55 | 1016.8 |
| 20260904185002 | 18 | 240 | 16.1 | 25.7 | 0.00 | 0.00 | 0.00 | 57 | 1016.8 |
| 20260904184503 | 18 | 236 | 14.5 | 25.7 | 0.00 | 0.00 | 0.00 | 57 | 1016.9 |
| 20260904184002 | 18 | 239 | 16.1 | 24.1 | 0.00 | 0.00 | 0.00 | 56 | 1016.9 |
| 20260904183502 | 18 | 236 | 19.3 | 29.0 | 0.00 | 0.00 | 0.00 | 57 | 1016.8 |
| 20260904183003 | 18 | 235 | 19.3 | 29.0 | 0.00 | 0.00 | 0.00 | 56 | 1016.9 |
| 20260904182503 | 18 | 236 | 16.1 | 30.6 | 0.00 | 0.00 | 0.00 | 56 | 1016.8 |
| 20260904182003 | 18 | 238 | 12.9 | 29.0 | 0.00 | 0.00 | 0.00 | 58 | 1016.9 |
| 20260904181503 | 18 | 235 | 14.5 | 27.4 | 0.00 | 0.00 | 0.00 | 58 | 1017.1 |
| 20260904181002 | 17 | 245 | 12.9 | 24.1 | 0.00 | 0.00 | 0.00 | 59 | 1017.2 |
| 20260904180502 | 17 | 238 | 11.3 | 27.4 | 0.00 | 0.00 | 0.00 | 59 | 1017.2 |
| 20260904180002 | 17 | 244 | 12.9 | 20.9 | 0.00 | 0.00 | 0.00 | 60 | 1017.2 |
| 20260904175502 | 17 | 241 | 14.5 | 25.7 | 0.00 | 0.00 | 0.00 | 60 | 1017.3 |
| 20260904175002 | 17 | 233 | 12.9 | 22.5 | 0.00 | 0.00 | 0.00 | 58 | 1017.2 |
| 20260904174503 | 17 | 245 | 12.9 | 17.7 | 0.00 | 0.00 | 0.00 | 58 | 1017.2 |
| 20260904174002 | 17 | 233 | 14.5 | 20.9 | 0.00 | 0.00 | 0.00 | 59 | 1017.1 |
| 20260904173502 | 17 | 238 | 14.5 | 24.1 | 0.00 | 0.00 | 0.00 | 58 | 1017.0 |
| 20260904173002 | 17 | 235 | 11.3 | 24.1 | 0.00 | 0.00 | 0.00 | 58 | 1017.1 |
| 20260904172502 | 17 | 233 | 11.3 | 19.3 | 0.00 | 0.00 | 0.00 | 58 | 1017.0 |
| 20260904172003 | 17 | 240 | 11.3 | 16.1 | 0.00 | 0.00 | 0.00 | 58 | 1017.0 |
| 20260904171502 | 16 | 239 | 8.0 | 19.3 | 0.00 | 0.00 | 0.00 | 59 | 1017.1 |
| 20260904171002 | 16 | 238 | 6.4 | 16.1 | 0.00 | 0.00 | 0.00 | 60 | 1017.1 |
| 20260904170502 | 16 | 242 | 8.0 | 17.7 | 0.00 | 0.00 | 0.00 | 60 | 1017.0 |
| 20260904170002 | 16 | 240 | 9.7 | 22.5 | 0.00 | 0.00 | 0.00 | 60 | 1017.0 |
| 20260904165502 | 16 | 236 | 11.3 | 19.3 | 0.00 | 0.00 | 0.00 | 60 | 1017.0 |
| 20260904165003 | 16 | 242 | 12.9 | 17.7 | 0.00 | 0.00 | 0.00 | 60 | 1016.9 |
| 20260904164502 | 16 | 238 | 12.9 | 19.3 | 0.00 | 0.00 | 0.00 | 60 | 1016.7 |
| 20260904164002 | 16 | 241 | 11.3 | 22.5 | 0.00 | 0.00 | 0.00 | 60 | 1016.5 |
| 20260904163502 | 16 | 233 | 9.7 | 20.9 | 0.00 | 0.00 | 0.00 | 60 | 1016.5 |
| 20260904163002 | 16 | 237 | 9.7 | 19.3 | 0.00 | 0.00 | 0.00 | 60 | 1016.5 |
| 20260904162503 | 16 | 235 | 9.7 | 17.7 | 0.00 | 0.00 | 0.00 | 60 | 1016.4 |
| 20260904162003 | 16 | 240 | 8.0 | 19.3 | 0.00 | 0.00 | 0.00 | 60 | 1016.4 |
| 20260904161502 | 15 | 235 | 6.4 | 19.3 | 0.00 | 0.00 | 0.00 | 61 | 1016.5 |
| 20260904160502 | 15 | 242 | 8.0 | 12.9 | 0.00 | 0.00 | 0.00 | 62 | 1016.5 |
| 20260904160002 | 15 | 236 | 8.0 | 12.9 | 0.00 | 0.00 | 0.00 | 63 | 1016.4 |
| 20260904155503 | 15 | 240 | 8.0 | 16.1 | 0.00 | 0.00 | 0.00 | 63 | 1016.6 |
| 20260904155002 | 15 | 236 | 8.0 | 12.9 | 0.00 | 0.00 | 0.00 | 63 | 1016.5 |
| 20260904154003 | 14 | 240 | 4.8 | 17.7 | 0.00 | 0.00 | 0.00 | 64 | 1016.5 |
| 20260904153502 | 14 | 241 | 4.8 | 12.9 | 0.00 | 0.00 | 0.00 | 65 | 1016.6 |
| 20260904153002 | 14 | 241 | 4.8 | 8.0 | 0.00 | 0.00 | 0.00 | 66 | 1016.6 |
| 20260904152503 | 13 | 241 | 4.8 | 11.3 | 0.00 | 0.00 | 0.00 | 66 | 1016.5 |
| 20260904152003 | 13 | 241 | 4.8 | 11.3 | 0.00 | 0.00 | 0.00 | 67 | 1016.5 |
| 20260904151502 | 13 | 239 | 4.8 | 12.9 | 0.00 | 0.00 | 0.00 | 67 | 1016.6 |
| 20260904151002 | 13 | 235 | 4.8 | 8.0 | 0.00 | 0.00 | 0.00 | 67 | 1016.5 |
| 20260904150503 | 13 | 242 | 3.2 | 12.9 | 0.00 | 0.00 | 0.00 | 68 | 1016.4 |
| 20260904150002 | 13 | 237 | 3.2 | 6.4 | 0.00 | 0.00 | 0.00 | 69 | 1016.3 |
| 20260904145503 | 13 | 238 | 3.2 | 12.9 | 0.00 | 0.00 | 0.00 | 69 | 1016.3 |
| 20260904145002 | 12 | 245 | 3.2 | 8.0 | 0.00 | 0.00 | 0.00 | 71 | 1016.2 |
| 20260904144502 | 12 | 243 | 3.2 | 6.4 | 0.00 | 0.00 | 0.00 | 73 | 1016.2 |
| 20260904144003 | 11 | 241 | 1.6 | 9.7 | 0.00 | 0.00 | 0.00 | 75 | 1016.1 |
| 20260904143502 | 11 | 201 | 0.0 | 4.8 | 0.00 | 0.00 | 0.00 | 76 | 1016.1 |
| 20260904143002 | 11 | 0 | 0.0 | 0.0 | 0.00 | 0.00 | 0.00 | 75 | 1016.0 |
| 20260904142503 | 11 | 0 | 0.0 | 0.0 | 0.00 | 0.00 | 0.00 | 75 | 1016.1 |
| 20260904142002 | 11 | 0 | 0.0 | 0.0 | 0.00 | 0.00 | 0.00 | 75 | 1016.0 |
| 20260904141503 | 10 | 0 | 0.0 | 0.0 | 0.00 | 0.00 | 0.00 | 75 | 1016.0 |
| 20260904141003 | 10 | 0 | 0.0 | 0.0 | 0.00 | 0.00 | 0.00 | 75 | 1016.0 |
| 20260904140502 | 10 | 63 | 0.0 | 1.6 | 0.00 | 0.00 | 0.00 | 74 | 1015.9 |
| 20260904135503 | 11 | 0 | 0.0 | 0.0 | 0.00 | 0.00 | 0.00 | 73 | 1015.8 |
| 20260904135003 | 11 | 0 | 0.0 | 0.0 | 0.00 | 0.00 | 0.00 | 73 | 1015.8 |
| 20260904134502 | 11 | 134 | 0.0 | 1.6 | 0.00 | 0.00 | 0.00 | 73 | 1015.8 |
| 20260904133503 | 11 | 0 | 0.0 | 0.0 | 0.00 | 0.00 | 0.00 | 72 | 1015.7 |
| 20260904133003 | 11 | 0 | 0.0 | 0.0 | 0.00 | 0.00 | 0.00 | 71 | 1015.8 |
| 20260904132502 | 11 | 0 | 0.0 | 0.0 | 0.00 | 0.00 | 0.00 | 71 | 1015.8 |
| 20260904132002 | 11 | 0 | 0.0 | 0.0 | 0.00 | 0.00 | 0.00 | 71 | 1015.9 |
| 20260904131502 | 11 | 0 | 0.0 | 0.0 | 0.00 | 0.00 | 0.00 | 71 | 1015.8 |
| 20260904131003 | 11 | 0 | 0.0 | 0.0 | 0.00 | 0.00 | 0.00 | 71 | 1015.7 |
| 20260904130503 | 11 | 0 | 0.0 | 0.0 | 0.00 | 0.00 | 0.00 | 70 | 1015.7 |
| 20260904125502 | 12 | 159 | 0.0 | 1.6 | 0.00 | 0.00 | 0.00 | 69 | 1015.6 |
| 20260904125002 | 12 | 116 | 0.0 | 1.6 | 0.00 | 0.00 | 0.00 | 69 | 1015.6 |
| 20260904124503 | 12 | 0 | 0.0 | 0.0 | 0.00 | 0.00 | 0.00 | 69 | 1015.6 |
| 20260904124002 | 12 | 0 | 0.0 | 0.0 | 0.00 | 0.00 | 0.00 | 68 | 1015.6 |
| 20260904123003 | 12 | 0 | 0.0 | 0.0 | 0.00 | 0.00 | 0.00 | 68 | 1015.4 |
| 20260904122502 | 12 | 0 | 0.0 | 0.0 | 0.00 | 0.00 | 0.00 | 68 | 1015.5 |
| 20260904122003 | 12 | 129 | 0.0 | 1.6 | 0.00 | 0.00 | 0.00 | 68 | 1015.4 |
| 20260904121503 | 12 | 0 | 0.0 | 0.0 | 0.00 | 0.00 | 0.00 | 68 | 1015.4 |
| 20260904121002 | 12 | 131 | 0.0 | 1.6 | 0.00 | 0.00 | 0.00 | 67 | 1015.4 |
| 20260904115502 | 13 | 205 | 0.0 | 1.6 | 0.00 | 0.00 | 0.00 | 66 | 1015.5 |
| 20260904114003 | 13 | 0 | 0.0 | 0.0 | 0.00 | 0.00 | 0.00 | 66 | 1015.5 |
| 20260904113502 | 13 | 243 | 0.0 | 1.6 | 0.00 | 0.00 | 0.00 | 66 | 1015.5 |
| 20260904113003 | 13 | 244 | 1.6 | 3.2 | 0.00 | 0.00 | 0.00 | 66 | 1015.6 |
| 20260904112503 | 13 | 242 | 1.6 | 3.2 | 0.00 | 0.00 | 0.00 | 66 | 1015.5 |
| 20260904111503 | 13 | 245 | 1.6 | 4.8 | 0.00 | 0.00 | 0.00 | 66 | 1015.4 |
| 20260904110503 | 13 | 224 | 0.0 | 3.2 | 0.00 | 0.00 | 0.00 | 66 | 1015.4 |
| 20260904110003 | 13 | 201 | 0.0 | 1.6 | 0.00 | 0.00 | 0.00 | 66 | 1015.4 |
| 20260904105502 | 13 | 0 | 0.0 | 0.0 | 0.00 | 0.00 | 0.00 | 66 | 1015.5 |
| 20260904103502 | 13 | 0 | 0.0 | 0.0 | 0.00 | 0.00 | 0.00 | 64 | 1015.4 |
| 20260904103003 | 13 | 0 | 0.0 | 0.0 | 0.00 | 0.00 | 0.00 | 64 | 1015.4 |
| 20260904102503 | 13 | 166 | 0.0 | 1.6 | 0.00 | 0.00 | 0.00 | 63 | 1015.2 |
| 20260904102002 | 13 | 0 | 0.0 | 0.0 | 0.00 | 0.00 | 0.00 | 64 | 1015.3 |
| 20260904101503 | 13 | 0 | 0.0 | 0.0 | 0.00 | 0.00 | 0.00 | 63 | 1015.3 |
| 20260904101003 | 13 | 0 | 0.0 | 0.0 | 0.00 | 0.00 | 0.00 | 63 | 1015.3 |
| 20260904100503 | 13 | 0 | 0.0 | 0.0 | 0.00 | 0.00 | 0.00 | 63 | 1015.4 |
| 20260904100003 | 14 | 0 | 0.0 | 0.0 | 0.00 | 0.00 | 0.00 | 62 | 1015.3 |
| 20260904095502 | 14 | 0 | 0.0 | 0.0 | 0.00 | 0.00 | 0.00 | 62 | 1015.4 |
| 20260904095003 | 14 | 0 | 0.0 | 0.0 | 0.00 | 0.00 | 0.00 | 62 | 1015.4 |
| 20260904094503 | 14 | 0 | 0.0 | 0.0 | 0.00 | 0.00 | 0.00 | 61 | 1015.3 |
| 20260904094002 | 14 | 166 | 0.0 | 1.6 | 0.00 | 0.00 | 0.00 | 61 | 1015.4 |
| 20260904093503 | 14 | 169 | 0.0 | 1.6 | 0.00 | 0.00 | 0.00 | 61 | 1015.4 |
| 20260904091502 | 14 | 0 | 0.0 | 0.0 | 0.00 | 0.00 | 0.00 | 61 | 1015.4 |
| 20260904090004 | 15 | 0 | 0.0 | 0.0 | 0.00 | 0.00 | 0.00 | 59 | 1015.4 |
| 20260904085503 | 15 | 161 | 0.0 | 1.6 | 0.00 | 0.00 | 0.00 | 59 | 1015.5 |
| 20260904085003 | 15 | 160 | 0.0 | 1.6 | 0.00 | 0.00 | 0.00 | 59 | 1015.5 |
| 20260904084503 | 15 | 159 | 0.0 | 1.6 | 0.00 | 0.00 | 0.00 | 58 | 1015.6 |
| 20260904083503 | 15 | 0 | 0.0 | 0.0 | 0.00 | 0.00 | 0.00 | 57 | 1015.6 |
| 20260904083002 | 16 | 0 | 0.0 | 0.0 | 0.00 | 0.00 | 0.00 | 57 | 1015.7 |
| 20260904082503 | 16 | 135 | 0.0 | 1.6 | 0.00 | 0.00 | 0.00 | 56 | 1015.8 |
| 20260904082003 | 16 | 143 | 0.0 | 1.6 | 0.00 | 0.00 | 0.00 | 56 | 1015.9 |
| 20260904081503 | 16 | 160 | 0.0 | 1.6 | 0.00 | 0.00 | 0.00 | 54 | 1015.7 |
| 20260904081003 | 16 | 0 | 0.0 | 0.0 | 0.00 | 0.00 | 0.00 | 54 | 1015.7 |
| 20260904080503 | 16 | 164 | 1.6 | 1.6 | 0.00 | 0.00 | 0.00 | 54 | 1015.7 |
| 20260904080003 | 16 | 177 | 1.6 | 4.8 | 0.00 | 0.00 | 0.00 | 54 | 1015.7 |
| 20260904075503 | 16 | 217 | 3.2 | 3.2 | 0.00 | 0.00 | 0.00 | 54 | 1015.6 |
| 20260904075003 | 16 | 167 | 4.8 | 6.4 | 0.00 | 0.00 | 0.00 | 53 | 1015.6 |
| 20260904074503 | 16 | 164 | 4.8 | 12.9 | 0.00 | 0.00 | 0.00 | 53 | 1015.6 |
| 20260904074003 | 16 | 167 | 6.4 | 8.0 | 0.00 | 0.00 | 0.00 | 54 | 1015.6 |
| 20260904073003 | 16 | 145 | 6.4 | 11.3 | 0.00 | 0.00 | 0.00 | 54 | 1015.7 |
| 20260904072502 | 16 | 153 | 6.4 | 11.3 | 0.00 | 0.00 | 0.00 | 54 | 1015.6 |
| 20260904072003 | 16 | 147 | 4.8 | 11.3 | 0.00 | 0.00 | 0.00 | 54 | 1015.6 |
| 20260904071503 | 16 | 150 | 3.2 | 16.1 | 0.00 | 0.00 | 0.00 | 55 | 1015.6 |
| 20260904071003 | 16 | 163 | 6.4 | 8.0 | 0.00 | 0.00 | 0.00 | 54 | 1015.5 |
| 20260904070503 | 16 | 156 | 6.4 | 14.5 | 0.00 | 0.00 | 0.00 | 56 | 1015.5 |
| 20260904070004 | 15 | 152 | 3.2 | 14.5 | 0.00 | 0.00 | 0.00 | 57 | 1015.6 |
| 20260904065502 | 15 | 153 | 0.0 | 14.5 | 0.00 | 0.00 | 0.00 | 57 | 1015.6 |
| 20260904064503 | 15 | 172 | 0.0 | 3.2 | 0.00 | 0.00 | 0.00 | 56 | 1015.5 |
| 20260904064003 | 15 | 192 | 0.0 | 1.6 | 0.00 | 0.00 | 0.00 | 55 | 1015.5 |
| 20260904063502 | 15 | 209 | 0.0 | 1.6 | 0.00 | 0.00 | 0.00 | 55 | 1015.5 |
| 20260904063003 | 15 | 227 | 0.0 | 1.6 | 0.00 | 0.00 | 0.00 | 55 | 1015.4 |
| 20260904062503 | 15 | 0 | 0.0 | 0.0 | 0.00 | 0.00 | 0.00 | 54 | 1015.3 |
| 20260904062003 | 15 | 0 | 0.0 | 0.0 | 0.00 | 0.00 | 0.00 | 55 | 1015.5 |
| 20260904061502 | 15 | 0 | 0.0 | 0.0 | 0.00 | 0.00 | 0.00 | 54 | 1015.4 |
| 20260904061003 | 15 | 0 | 0.0 | 0.0 | 0.00 | 0.00 | 0.00 | 53 | 1015.3 |
| 20260904060503 | 15 | 0 | 0.0 | 0.0 | 0.00 | 0.00 | 0.00 | 53 | 1015.3 |
| 20260904060003 | 15 | 0 | 0.0 | 0.0 | 0.00 | 0.00 | 0.00 | 53 | 1015.3 |
| 20260904055503 | 15 | 232 | 0.0 | 1.6 | 0.00 | 0.00 | 0.00 | 53 | 1015.2 |
| 20260904055003 | 15 | 232 | 0.0 | 1.6 | 0.00 | 0.00 | 0.00 | 52 | 1015.2 |
| 20260904054503 | 15 | 215 | 0.0 | 3.2 | 0.00 | 0.00 | 0.00 | 53 | 1015.2 |
| 20260904054003 | 15 | 0 | 0.0 | 0.0 | 0.00 | 0.00 | 0.00 | 53 | 1015.2 |
| 20260904053503 | 15 | 95 | 0.0 | 1.6 | 0.00 | 0.00 | 0.00 | 53 | 1015.2 |
| 20260904053003 | 15 | 0 | 0.0 | 0.0 | 0.00 | 0.00 | 0.00 | 52 | 1015.2 |
| 20260904052502 | 15 | 95 | 0.0 | 1.6 | 0.00 | 0.00 | 0.00 | 52 | 1015.3 |
| 20260904052002 | 15 | 0 | 0.0 | 0.0 | 0.00 | 0.00 | 0.00 | 51 | 1015.3 |
| 20260904051503 | 16 | 148 | 0.0 | 3.2 | 0.00 | 0.00 | 0.00 | 52 | 1015.3 |
| 20260904051003 | 16 | 137 | 0.0 | 3.2 | 0.00 | 0.00 | 0.00 | 52 | 1015.4 |
| 20260904050503 | 16 | 133 | 1.6 | 3.2 | 0.00 | 0.00 | 0.00 | 52 | 1015.4 |
| 20260904050004 | 16 | 167 | 1.6 | 3.2 | 0.00 | 0.00 | 0.00 | 52 | 1015.4 |
| 20260904045503 | 16 | 120 | 0.0 | 4.8 | 0.00 | 0.00 | 0.00 | 52 | 1015.4 |
| 20260904045003 | 16 | 144 | 0.0 | 3.2 | 0.00 | 0.00 | 0.00 | 51 | 1015.4 |
| 20260904044503 | 16 | 143 | 0.0 | 3.2 | 0.00 | 0.00 | 0.00 | 51 | 1015.3 |
| 20260904044003 | 16 | 150 | 1.6 | 3.2 | 0.00 | 0.00 | 0.00 | 51 | 1015.3 |
| 20260904043503 | 16 | 147 | 1.6 | 3.2 | 0.00 | 0.00 | 0.00 | 51 | 1015.3 |
| 20260904043004 | 16 | 139 | 1.6 | 3.2 | 0.00 | 0.00 | 0.00 | 51 | 1015.2 |
| 20260904042503 | 16 | 146 | 0.0 | 3.2 | 0.00 | 0.00 | 0.00 | 51 | 1015.4 |
| 20260904042003 | 16 | 154 | 1.6 | 1.6 | 0.00 | 0.00 | 0.00 | 50 | 1015.3 |
| 20260904041502 | 16 | 150 | 1.6 | 4.8 | 0.00 | 0.00 | 0.00 | 51 | 1015.4 |
| 20260904041003 | 17 | 137 | 0.0 | 3.2 | 0.00 | 0.00 | 0.00 | 50 | 1015.3 |
| 20260904040503 | 17 | 138 | 1.6 | 3.2 | 0.00 | 0.00 | 0.00 | 50 | 1015.2 |
| 20260904040003 | 17 | 146 | 3.2 | 3.2 | 0.00 | 0.00 | 0.00 | 50 | 1015.2 |
| 20260904035503 | 17 | 144 | 3.2 | 4.8 | 0.00 | 0.00 | 0.00 | 50 | 1015.2 |
| 20260904035003 | 17 | 141 | 3.2 | 6.4 | 0.00 | 0.00 | 0.00 | 50 | 1015.2 |
| 20260904034004 | 17 | 146 | 3.2 | 6.4 | 0.00 | 0.00 | 0.00 | 49 | 1015.2 |
| 20260904033503 | 17 | 152 | 1.6 | 4.8 | 0.00 | 0.00 | 0.00 | 49 | 1015.3 |
| 20260904033003 | 17 | 154 | 1.6 | 3.2 | 0.00 | 0.00 | 0.00 | 48 | 1015.2 |
| 20260904032003 | 17 | 163 | 3.2 | 4.8 | 0.00 | 0.00 | 0.00 | 48 | 1015.2 |
| 20260904031004 | 17 | 156 | 3.2 | 8.0 | 0.00 | 0.00 | 0.00 | 47 | 1015.1 |
| 20260904030503 | 17 | 163 | 1.6 | 4.8 | 0.00 | 0.00 | 0.00 | 46 | 1015.2 |
| 20260904030003 | 17 | 160 | 1.6 | 6.4 | 0.00 | 0.00 | 0.00 | 45 | 1015.2 |
| 20260904025003 | 18 | 174 | 3.2 | 3.2 | 0.00 | 0.00 | 0.00 | 45 | 1015.2 |
| 20260904024003 | 18 | 174 | 4.8 | 4.8 | 0.00 | 0.00 | 0.00 | 45 | 1015.2 |
| 20260904023504 | 18 | 181 | 6.4 | 8.0 | 0.00 | 0.00 | 0.00 | 45 | 1015.2 |
| 20260904023003 | 18 | 181 | 6.4 | 14.5 | 0.00 | 0.00 | 0.00 | 45 | 1015.2 |
| 20260904022502 | 18 | 191 | 6.4 | 9.7 | 0.00 | 0.00 | 0.00 | 45 | 1015.2 |
| 20260904021003 | 18 | 209 | 8.0 | 14.5 | 0.00 | 0.00 | 0.00 | 44 | 1015.2 |
| 20260904020004 | 19 | 219 | 9.7 | 14.5 | 0.00 | 0.00 | 0.00 | 42 | 1015.1 |
| 20260904015503 | 19 | 235 | 9.7 | 19.3 | 0.00 | 0.00 | 0.00 | 41 | 1015.2 |
| 20260904015003 | 19 | 229 | 11.3 | 17.7 | 0.00 | 0.00 | 0.00 | 41 | 1015.2 |
| 20260904014003 | 20 | 232 | 11.3 | 22.5 | 0.00 | 0.00 | 0.00 | 39 | 1015.1 |
| 20260904013503 | 20 | 220 | 11.3 | 16.1 | 0.00 | 0.00 | 0.00 | 38 | 1015.2 |
| 20260904013004 | 20 | 226 | 12.9 | 11.3 | 0.00 | 0.00 | 0.00 | 38 | 1015.3 |
| 20260904012503 | 20 | 235 | 12.9 | 20.9 | 0.00 | 0.00 | 0.00 | 37 | 1015.2 |
| 20260904012003 | 20 | 233 | 12.9 | 20.9 | 0.00 | 0.00 | 0.00 | 37 | 1015.3 |
| 20260904011503 | 21 | 228 | 12.9 | 20.9 | 0.00 | 0.00 | 0.00 | 37 | 1015.2 |
| 20260904011004 | 21 | 218 | 14.5 | 19.3 | 0.00 | 0.00 | 0.00 | 37 | 1015.2 |
| 20260904010503 | 21 | 214 | 14.5 | 16.1 | 0.00 | 0.00 | 0.00 | 37 | 1015.3 |
| 20260904005503 | 21 | 219 | 14.5 | 20.9 | 0.00 | 0.00 | 0.00 | 36 | 1015.3 |
| 20260904005003 | 21 | 220 | 14.5 | 20.9 | 0.00 | 0.00 | 0.00 | 35 | 1015.3 |
| 20260904003503 | 21 | 212 | 14.5 | 19.3 | 0.00 | 0.00 | 0.00 | 34 | 1015.3 |
| 20260904003003 | 21 | 218 | 14.5 | 24.1 | 0.00 | 0.00 | 0.00 | 34 | 1015.3 |
| 20260904002503 | 21 | 212 | 12.9 | 22.5 | 0.00 | 0.00 | 0.00 | 34 | 1015.3 |
| 20260904001504 | 21 | 210 | 14.5 | 17.7 | 0.00 | 0.00 | 0.00 | 34 | 1015.4 |
| 20260904001003 | 21 | 216 | 16.1 | 25.7 | 0.00 | 0.00 | 0.00 | 34 | 1015.4 |
| 20260904000503 | 21 | 222 | 16.1 | 25.7 | 0.00 | 0.00 | 0.00 | 35 | 1015.4 |
| 20260904000003 | 21 | 222 | 16.1 | 25.7 | 0.00 | 0.00 | 0.00 | 35 | 1015.3 |
| 20260903235503 | 21 | 234 | 16.1 | 29.0 | 0.00 | 0.00 | 0.00 | 35 | 1015.3 |
| 20260903235004 | 21 | 221 | 16.1 | 22.5 | 0.00 | 0.00 | 0.00 | 35 | 1015.4 |
| 20260903234503 | 21 | 208 | 16.1 | 27.4 | 0.00 | 0.00 | 0.00 | 36 | 1015.4 |
| 20260903233003 | 21 | 227 | 17.7 | 27.4 | 0.00 | 0.00 | 0.00 | 35 | 1015.4 |
| 20260903231504 | 21 | 231 | 17.7 | 30.6 | 0.00 | 0.00 | 0.00 | 36 | 1015.4 |
| 20260903230503 | 22 | 226 | 17.7 | 30.6 | 0.00 | 0.00 | 0.00 | 37 | 1015.5 |
| 20260903230003 | 22 | 206 | 16.1 | 30.6 | 0.00 | 0.00 | 0.00 | 37 | 1015.7 |
| 20260903225503 | 22 | 223 | 16.1 | 24.1 | 0.00 | 0.00 | 0.00 | 36 | 1015.7 |
| 20260903225004 | 22 | 230 | 16.1 | 29.0 | 0.00 | 0.00 | 0.00 | 37 | 1015.7 |
| 20260903224503 | 22 | 226 | 14.5 | 29.0 | 0.00 | 0.00 | 0.00 | 38 | 1015.8 |
| 20260903224003 | 22 | 233 | 14.5 | 22.5 | 0.00 | 0.00 | 0.00 | 38 | 1015.8 |
| 20260903223503 | 22 | 230 | 14.5 | 25.7 | 0.00 | 0.00 | 0.00 | 39 | 1015.9 |
| 20260903223004 | 22 | 227 | 14.5 | 22.5 | 0.00 | 0.00 | 0.00 | 39 | 1015.9 |